Regional Weather Roundup
Issued by NWS Cleveland, OH

Home | Current Version | Previous Version | Graphics & Text | Print | Product List | Glossary On
Versions: 1 2 3 4 5 6 7 8 9 10 11 12 13 14 15 16 17 18 19 20 21 22 23 24 25 26 27 28 29 30 31 32 33 34 35 36 37 38 39 40 41 42 43 44 45 46 47 48 49 50
000
ASUS41 KCLE 311002
RWRCLE
OHIO REGIONAL WEATHER ROUNDUP
NATIONAL WEATHER SERVICE CLEVELAND, OH
500 AM EST SAT JAN 31 2015

NOTE: "FAIR" INDICATES FEW OR NO CLOUDS BELOW 12,000 FEET WITH NO
SIGNIFICANT WEATHER AND/OR OBSTRUCTIONS TO VISIBILITY.

OHZ001>008-015>018-024>027-034-035-043-044-311100-
   NORTHWEST OHIO

CITY           SKY/WX    TMP DP  RH WIND       PRES   REMARKS
DEFIANCE       CLEAR     17  11  77 CALM      30.34F
FINDLAY        CLEAR     12   6  77 S8        30.33F WCI   0
TOLEDO EXPRESS MOCLDY    12   9  87 CALM      30.34S
TOLEDO EXEC    PTCLDY    17  10  74 SW5       30.36S WCI  10
LIMA           CLEAR     15   9  76 S8        30.32F WCI   4
$$

OHZ009>014-019>023-028>033-038-089-311100-
   NORTHEAST OHIO

CITY           SKY/WX    TMP DP  RH WIND       PRES   REMARKS
CLE-HOPKINS    CLOUDY     9   3  77 S6        30.37F WCI  -1
CLE-LAKEFRONT  MOCLDY    12   4  70 S8        30.35F WCI   0
CUY CO. ARPT   NOT AVBL
LORAIN-ELYRIA  CLOUDY     7   3  84 S5        30.34F WCI  -2
ASHTABULA      CLOUDY     1  -3  83 CALM      30.34F
AKRON-CANTON   PTCLDY     5   0  79 S6        30.33F WCI  -6
WOOSTER        MOCLDY    -2  -5  87 CALM      30.35R
MANSFIELD      PTCLDY     8   4  83 S6        30.32S WCI  -2
YOUNGSTOWN     CLOUDY     5   1  83 SW5       30.32F WCI  -4
$$

OHZ042-051>053-060>062-070>072-077>081-311100-
  SOUTHWEST OHIO

CITY           SKY/WX    TMP DP  RH WIND       PRES   REMARKS
CINC-COVINGTON CLEAR     18  13  80 S5        30.36F WCI  11
CINC-LUNKEN    FAIR      15  13  91 CALM      30.42F
HAMILTON       CLEAR     13   9  84 CALM      30.39F
DAYTON         CLEAR     19  13  77 S7        30.35F WCI  10
WRIGHT-PAT AFB CLEAR     13  11  88 SE3       30.36F
DAYTON GENERAL FAIR      16  12  84 S6        30.35F WCI   7
WILMINGTON     CLEAR     16  10  77 S5        30.36F WCI   9
$$

OHZ036-037-039>041-045>050-054>059-063>069-073>076-082>088-311100-
  CENTRAL AND SOUTHEAST OHIO

CITY           SKY/WX    TMP DP  RH WIND       PRES   REMARKS
COLUMBUS       CLEAR     12   8  84 CALM      30.38F
OSU AIRPORT    CLEAR     13   8  81 S5        30.36F WCI   5
BOLTON FIELD   NOT AVBL
RICKENBACK AFB NOT AVBL
NEWARK         FAIR       7   2  80 CALM      30.37F
MARION         CLEAR      8   3  80 S6        30.35F WCI  -2
LANCASTER      CLEAR      8   5  87 CALM      30.38F
ZANESVILLE     FAIR       4   0  83 CALM      30.38S
NEW PHILLY     PTCLDY     1  -3  83 CALM      30.38S
$$


USA.gov is the U.S. government's official web portal to all federal, state and local government web resources and services.